This is the latest recevied weather packets stored in our database for station/object OK1PMP-6. If no packets are shown the sender has not sent any weather packets the latest 10 day(s).
| Time | Temp. | Humidity | Pressure | Rain* | Wind** | Luminosity | Snow |
|---|---|---|---|---|---|---|---|
| 1777815773 | 27.22° C | 27% | 1017.6 hPa | 0 mm | - | 474 W/m² | - |
| 1777814870 | 27.22° C | 26% | 1017.7 hPa | 0 mm | - | 529 W/m² | - |
| 1777813971 | 26.67° C | 26% | 1017.9 hPa | 0 mm | - | 560 W/m² | - |
| 1777813068 | 26.67° C | 26% | 1017.8 hPa | 0 mm | - | 583 W/m² | - |
| 1777812168 | 27.22° C | 25% | 1018.3 hPa | 0 mm | - | 609 W/m² | - |
| 1777811269 | 26.67° C | 27% | 1018.6 hPa | 0 mm | - | 630 W/m² | - |
| 1777810367 | 26.67° C | 25% | 1018.5 hPa | 0 mm | - | 660 W/m² | - |
| 1777809461 | 26.11° C | 27% | 1018.6 hPa | 0 mm | - | 680 W/m² | - |
| 1777808555 | 26.11° C | 29% | 1019 hPa | 0 mm | - | 695 W/m² | - |
| 1777807655 | 25.56° C | 28% | 1019.3 hPa | 0 mm | - | 84 W/m² | - |
| 1777806751 | 25.56° C | 30% | 1019.3 hPa | 0 mm | - | 719 W/m² | - |
| 1777805842 | 25° C | 30% | 1019.5 hPa | 0 mm | - | 730 W/m² | - |
| 1777804933 | 24.44° C | 28% | 1019.5 hPa | 0 mm | - | 719 W/m² | - |
| 1777804030 | 24.44° C | 31% | 1019.9 hPa | 0 mm | - | 703 W/m² | - |
| 1777803135 | 24.44° C | 34% | 1020 hPa | 0 mm | - | 691 W/m² | - |
| 1777802228 | 25° C | 31% | 1020.5 hPa | 0 mm | - | 689 W/m² | - |
| 1777801326 | 24.44° C | 33% | 1020.6 hPa | 0 mm | - | 661 W/m² | - |
| 1777800415 | 23.89° C | 33% | 1020.9 hPa | 0 mm | - | 710 W/m² | - |
| 1777799511 | 22.78° C | 36% | 1021.1 hPa | 0 mm | - | 649 W/m² | - |
| 1777798615 | 21.67° C | 36% | 1020.9 hPa | 0 mm | - | 640 W/m² | - |
| 1777797703 | 21.67° C | 35% | 1021.1 hPa | 0 mm | - | 578 W/m² | - |
| 1777796803 | 21.67° C | 35% | 1021.2 hPa | 0 mm | - | 604 W/m² | - |
| 1777795908 | 20° C | 39% | 1021.3 hPa | 0 mm | - | 600 W/m² | - |
| 1777795003 | 19.44° C | 40% | 1021.3 hPa | 0 mm | - | 568 W/m² | - |
| 1777794108 | 18.89° C | 41% | 1021.4 hPa | 0 mm | - | 544 W/m² | - |
* Rain latest hour (hover to see other rain measurements)
** Current wind speed in m/s (hover to see current wind gust speed)